Weather in Vantaa

Finland     60°17′36″N   25°02′22″E
temp.,
°C
wind,
m/s
gust,
m/s
humid.,
%
clouds,
%
prec.,
mm/h
press.,
hPa
HPBL,
m
13 may, thu
thu1300:00+13se310773 0.0 1016170
03:00+11se23860 0.0 101542
06:00+11e22850 0.0 101420
09:00+17e36611 0.0 1013282
12:00+17e596316 0.0 1013528
15:00+17ese686218 0.0 1012898
18:00+16ese475912 0.0 1011810
21:00+12e36755 0.0 1011126
14 may, fri
fri1400:00+10ene227657 0.0 101019
03:00+12nne2368100 0.0 100964
06:00+9se2478100 0.0 1009127
09:00+10e2591100 0.4 1009229
12:00+13ese4766100 0.1 1008739
15:00+15e5856100 0.1 10081128
18:00+10ese51083100 0.0 1007481
21:00+9e31094100 0.4 1006376
15 may, sat
sat1500:00+9e3897100 0.3 1006254
03:00+9e3797100 0.4 1005193
06:00+9e3898100 1.1 1004255
09:00+10e4992100 2.9 1003350
12:00+9ese4997100 2.5 1003265
15:00+9s2296100 3.5 1003165
18:00+12wsw478077 0.2 1003586
21:00+8sw399129 0.2 1003464
16 may, sun
sun1600:00+7sw3109588 0.0 1004392
03:00+7sw389596 0.0 1005312
06:00+7ssw399492 0.0 1006375
09:00+9ssw4888100 0.0 1007333
12:00+12ssw4872100 0.0 1009669
15:00+15sw485611 0.0 1009905
18:00+14sse345816 0.0 1010492
21:00+11ese2474100 0.0 101086
17 may, mon
mon1700:00+11ese248257 0.0 101099
03:00+9ese259339 0.0 101088
06:00+9ese3889100 0.0 1009155
09:00+13ese4977100 0.0 1010279
12:00+12e4982100 0.0 1009245
15:00+13e41178100 0.1 1008277
18:00+14ese51275100 0.6 1007339
21:00+11e2298100 3.1 100753